Starlink 32273

operational
NORAD ID: 61956 Int'l Des: 2024-209 Owner: SPXS Country: US Constellation: starlink
LEOCIRCULAR

关于 Starlink 32273

正在加载描述...

实时位置

正在加载3D地球...

即将过境

高度历史

Altitude vs Time

uPlot chart will show altitude changes over time

两行轨道根数

1 61956U 24209T 25258.21963342 .00063753 00000-0 21431-2 0 9993
2 61956 53.1560 237.2984 0002454 93.1874 266.9408 15.30246586 48031
Epoch: Sep 15, 2025 • Age: 19 hours

当前状态

高度 479.3 km
速度 7.63 km/s
星下点 51.70°N, 20.13°W
发射日期 Nov 14, 2024
运行时间 0.8 years
类型 internet

技术详情

分类 Payload
质量 730.00 kg
干质量 700.00 kg
总质量 730.00 kg
长度 0.30 m
直径 4.10 m
跨度 29.00 m
形状 Box + pan
制造商 SPXS
平台类型 Starlink V2M
阶段状态 In Orbit
所有者/国家 SPXS/US

大型星座

Loading constellations...